This demonstration page uses our WeatherBlox Daily Observations layout. Learn more.

Left ArrowRight Arrow

Hourly Observations for May 30, 2017

Temp ( °F °C ) Dew Point ( °F °C ) Humidity (%) Winds ( mph kmh ) Pressure ( in mb ) Visibility ( mi km ) Precip ( " mm )
12:53 am 00:53 Cloudy 70 21.1 69 20.6 97 97 WNW 3 6 30.06 1018 10 16 0.00 0.00
1:53 am 01:53 Cloudy 69 20.6 69 20.6 100 100 Calm 30.05 1018 10 16 0.00 0.03
2:53 am 02:53 Mostly Clear 68 20 68 20 100 100 Calm 30.06 1018 10 16 0.00 0.00
3:53 am 03:53 Partly Cloudy 68 20 68 20 100 100 SW 3 6 30.06 1018 10 16 0.00 0.00
4:53 am 04:53 Clear 68 20 68 20 100 100 SSW 3 6 30.06 1018 10 16 0.00 0.00
5:53 am 05:53 Clear 67 19.4 67 19.4 100 100 WSW 3 6 30.07 1018 10 16 0.00 0.00
6:53 am 06:53 Mostly Sunny 68 20 67 19.4 96 96 SW 3 6 30.09 1019 10 16 0.00 0.00
7:53 am 07:53 Partly Cloudy 68 20 67 19.4 96 96 Calm 30.10 1019 10 16 0.00 0.03
8:53 am 08:53 Mostly Cloudy 69 20.6 67 19.4 93 93 WSW 3 6 30.12 1020 10 16 0.01 0.25
9:53 am 09:53 Mostly Cloudy 70 21.1 68 20 93 93 SSW 3 6 30.12 1020 10 16 0.00 0.00
10:53 am 10:53 Cloudy with Light Rain 72 22.2 69 20.6 91 91 VRB 3 6 30.12 1020 9 14 0.00 0.03
11:53 am 11:53 Cloudy with Light Rain 71 21.7 68 20 90 90 WNW 6 9 30.13 1020 10 16 0.07 1.78
12:53 pm 12:53 Cloudy 70 21.1 68 20 93 93 NNE 6 9 30.14 1021 10 16 0.00 0.03
1:53 pm 13:53 Cloudy with Light Rain 71 21.7 68 20 90 90 N 5 7 30.13 1020 10 16 0.00 0.03
2:41 pm 14:41 Mostly Cloudy 72 22.2 68 20 87 87 NNE 7 11 30.12 1020 10 16 0.00 0.03
2:53 pm 14:53 Mostly Cloudy 72 22.2 68 20 87 87 NE 5 7 30.11 1020 10 16 0.00 0.03
3:53 pm 15:53 Mostly Sunny 76 24.4 68 20 77 77 Calm 30.09 1019 10 16 0.00 0.00
4:30 pm 16:30 Cloudy with Nearby Thunderstorms 74 23.3 69 20.6 85 85 WSW 7 11 30.09 1019 10 16 0.01 0.25
4:53 pm 16:53 Cloudy with Nearby Thunderstorms 72 22.2 68 20 87 87 SW 7 11 30.11 1020 7 11 0.04 1.02
5:21 pm 17:21 Cloudy with Light Rain 70 21.1 69 20.6 97 97 NNE 5 7 30.12 1020 6 10 0.04 1.02
5:53 pm 17:53 Cloudy with Light Rain 69 20.6 68 20 96 96 SSW 6 9 30.10 1019 7 11 0.07 1.78
6:53 pm 18:53 Mostly Cloudy with Light Rain 69 20.6 68 20 96 96 NNW 3 6 30.06 1018 10 16 0.02 0.51
7:53 pm 19:53 Sunny 69 20.6 68 20 96 96 WSW 3 6 30.06 1018 10 16 0.00 0.03
8:53 pm 20:53 Cloudy 68 20 68 20 100 100 WNW 3 6 30.08 1019 10 16 0.00 0.00
9:49 pm 21:49 Partly Cloudy 68 20 66 19 94 94 SW 3 6 30.12 1020 10 16 0.00 0.00
9:53 pm 21:53 Mostly Cloudy 68 20 67 19.4 96 96 SSW 3 6 30.09 1019 10 16 0.00 0.00
10:53 pm 22:53 Mostly Cloudy 68 20 68 20 100 100 Calm 30.09 1019 10 16 0.00 0.00
11:53 pm 23:53 Mostly Cloudy 68 20 67 19.4 96 96 Calm 30.09 1019 10 16 0.00 0.00

Powered by AerisWeather